Eastsound, WA
on Friday, February 1, 2013

Friday
Previous Day Next Day
Daily Summary
 ActualAverage (KBLI)Record (KBLI)
Temperature
Mean Temperature °F 40°F  
Max Temperature 46°F 47°F 63°F (1991)
Min Temperature 41°F 33°F -2°F (1950)
Degree Days
Heating Degree Days 22 25  
Month to date heating degree days 25  
Cooling Degree Days 0 0  
Month to date cooling degree days 0  
Year to date cooling degree days 0  
Moisture
Dew Point 43°F   
Average Humidity 96    
Maximum Humidity 100    
Minimum Humidity 87    
Precipitation
Precipitation 0.00 in 0.12 in 0.55 in (1982)
Month to date precipitation 0.12  
Year to date precipitation 4.79  
Wind
Wind Speed 1 mph   
Max Wind Speed 7 mph   
Max Gust Speed mph   
Visibility 9 miles   
Events     

Key: T is trace of precipitation, MM is missing value
Source: NWS Daily Summary
Time(PST)TemperatureDew PointHumidity Pressure Visibility Wind DirectionWind SpeedGust SpeedPrecipitationEvents Conditions
12:15 AM 44.6°F 44.6°F 100% 30.32 in 10.0 miles Calm Calm - N/A   Overcast
12:35 AM 44.6°F 42.8°F 93% 30.32 in 10.0 miles Calm Calm - N/A   Overcast
12:55 AM 44.6°F 42.8°F 93% 30.32 in 10.0 miles Calm Calm - N/A   Overcast
1:15 AM 44.6°F 44.6°F 100% 30.33 in 10.0 miles Calm Calm - N/A   Overcast
1:35 AM 44.6°F 44.6°F 100% 30.33 in 10.0 miles Calm Calm - N/A   Overcast
1:55 AM 44.6°F 44.6°F 100% 30.34 in 10.0 miles Calm Calm - N/A   Overcast
2:15 AM 44.6°F 44.6°F 100% 30.35 in 10.0 miles Calm Calm - N/A   Overcast
2:35 AM 44.6°F 44.6°F 100% 30.35 in 8.0 miles Calm Calm - N/A   Overcast
2:55 AM 44.6°F 44.6°F 100% 30.35 in 8.0 miles WSW 3.5 mph - N/A   Overcast
3:15 AM 44.6°F 42.8°F 93% 30.35 in 8.0 miles Calm Calm - N/A   Mostly Cloudy
3:35 AM 44.6°F 42.8°F 93% 30.35 in 7.0 miles Calm Calm - N/A   Mostly Cloudy
3:55 AM 44.6°F 42.8°F 93% 30.36 in 9.0 miles Calm Calm - N/A   Mostly Cloudy
4:35 AM 44.6°F 42.8°F 93% 30.36 in 7.0 miles Calm Calm - N/A   Mostly Cloudy
4:55 AM 44.6°F 42.8°F 93% 30.37 in 9.0 miles Calm Calm - N/A   Overcast
5:15 AM 44.6°F 42.8°F 93% 30.37 in 10.0 miles Calm Calm - N/A   Overcast
5:55 AM 42.8°F 42.8°F 100% 30.36 in 9.0 miles Calm Calm - N/A   Overcast
6:15 AM 42.8°F 42.8°F 100% 30.37 in 6.0 miles Calm Calm - N/A   Overcast
6:35 AM 42.8°F 42.8°F 100% 30.37 in 7.0 miles Calm Calm - N/A   Overcast
6:55 AM 42.8°F 42.8°F 100% 30.37 in 7.0 miles Calm Calm - N/A   Overcast
7:15 AM 42.8°F 42.8°F 100% 30.37 in 7.0 miles Calm Calm - N/A   Overcast
7:35 AM 42.8°F 42.8°F 100% 30.37 in 7.0 miles Calm Calm - N/A   Overcast
7:55 AM 42.8°F 42.8°F 100% 30.37 in 5.0 miles Calm Calm - N/A   Overcast
8:15 AM 42.8°F 42.8°F 100% 30.38 in 7.0 miles Calm Calm - N/A   Overcast
8:35 AM 42.8°F 42.8°F 100% 30.39 in 6.0 miles Calm Calm - N/A   Overcast
8:55 AM 42.8°F 42.8°F 100% 30.39 in 5.0 miles Calm Calm - N/A   Overcast
9:15 AM 44.6°F 44.6°F 100% 30.40 in 5.0 miles Calm Calm - N/A   Overcast
9:35 AM 44.6°F 44.6°F 100% 30.40 in 9.0 miles Calm Calm - N/A   Overcast
9:55 AM 44.6°F 44.6°F 100% 30.41 in 10.0 miles Calm Calm - N/A   Overcast
10:15 AM 44.6°F 44.6°F 100% 30.41 in 10.0 miles Calm Calm - N/A   Overcast
10:35 AM 44.6°F 44.6°F 100% 30.42 in 10.0 miles Calm Calm - N/A   Overcast
10:55 AM 44.6°F 42.8°F 93% 30.42 in 10.0 miles Calm Calm - N/A   Overcast
11:15 AM 44.6°F 44.6°F 100% 30.42 in 9.0 miles Calm Calm - N/A   Overcast
11:35 AM 44.6°F 42.8°F 93% 30.42 in 10.0 miles Calm Calm - N/A   Overcast
11:55 AM 44.6°F 42.8°F 93% 30.41 in 10.0 miles Calm Calm - N/A   Overcast
12:15 PM 44.6°F 42.8°F 93% 30.41 in 10.0 miles Calm Calm - N/A   Overcast
12:35 PM 44.6°F 42.8°F 93% 30.41 in 10.0 miles Calm Calm - N/A   Overcast
12:55 PM 44.6°F 42.8°F 93% 30.41 in 10.0 miles Calm Calm - N/A   Overcast
1:15 PM 46.4°F 42.8°F 87% 30.40 in 10.0 miles North 3.5 mph - N/A   Overcast
1:35 PM 46.4°F 42.8°F 87% 30.40 in 10.0 miles North 4.6 mph - N/A   Mostly Cloudy
1:55 PM 46.4°F 42.8°F 87% 30.40 in 10.0 miles North 3.5 mph - N/A   Partly Cloudy
2:15 PM 46.4°F 42.8°F 87% 30.40 in 10.0 miles North 5.8 mph - N/A   Partly Cloudy
2:35 PM 46.4°F 44.6°F 93% 30.40 in 10.0 miles NNW 3.5 mph - N/A   Mostly Cloudy
2:55 PM 46.4°F 42.8°F 87% 30.39 in 10.0 miles NNW 5.8 mph - N/A   Overcast
3:15 PM 44.6°F 42.8°F 93% 30.40 in 10.0 miles NNW 5.8 mph - N/A   Overcast
3:35 PM 44.6°F 42.8°F 93% 30.40 in 10.0 miles NNW 4.6 mph - N/A   Overcast
3:55 PM 44.6°F 42.8°F 93% 30.40 in 10.0 miles NNW 4.6 mph - N/A   Partly Cloudy
4:15 PM 44.6°F 42.8°F 93% 30.39 in 10.0 miles NNW 4.6 mph - N/A   Clear
4:35 PM 44.6°F 41.0°F 87% 30.39 in 10.0 miles Calm Calm - N/A   Clear
4:55 PM 44.6°F 42.8°F 93% 30.39 in 10.0 miles Calm Calm - N/A   Partly Cloudy
5:15 PM 44.6°F 42.8°F 93% 30.40 in 10.0 miles Calm Calm - N/A   Mostly Cloudy
5:35 PM 44.6°F 42.8°F 93% 30.40 in 10.0 miles Calm Calm - N/A   Overcast
5:55 PM 42.8°F 42.8°F 100% 30.40 in 10.0 miles Calm Calm - N/A   Overcast
6:15 PM 42.8°F 42.8°F 100% 30.40 in 10.0 miles NNW 3.5 mph - N/A   Overcast
6:35 PM 44.6°F 42.8°F 93% 30.40 in 10.0 miles North 5.8 mph - N/A   Overcast
6:55 PM 44.6°F 42.8°F 93% 30.41 in 10.0 miles North 4.6 mph - N/A   Overcast
7:15 PM 44.6°F 42.8°F 93% 30.41 in 10.0 miles NNW 4.6 mph - N/A   Overcast
7:35 PM 44.6°F 42.8°F 93% 30.41 in 10.0 miles North 5.8 mph - N/A   Overcast
7:55 PM 44.6°F 42.8°F 93% 30.41 in 10.0 miles Calm Calm - N/A   Overcast
8:15 PM 44.6°F 42.8°F 93% 30.41 in 10.0 miles Calm Calm - N/A   Overcast
8:35 PM 44.6°F 41.0°F 87% 30.40 in 10.0 miles NNE 3.5 mph - N/A   Mostly Cloudy
8:55 PM 42.8°F 41.0°F 93% 30.40 in 10.0 miles Calm Calm - N/A   Partly Cloudy
9:15 PM 42.8°F 41.0°F 93% 30.40 in 10.0 miles Calm Calm - N/A   Mostly Cloudy
9:35 PM 42.8°F 41.0°F 93% 30.40 in 10.0 miles North 3.5 mph - N/A   Overcast
9:55 PM 41.0°F 41.0°F 100% 30.40 in 10.0 miles North 3.5 mph - N/A   Mostly Cloudy
10:15 PM 41.0°F 41.0°F 100% 30.40 in 10.0 miles Calm Calm - N/A   Mostly Cloudy
10:35 PM 41.0°F 41.0°F 100% 30.41 in 10.0 miles North 4.6 mph - N/A   Overcast
10:55 PM 42.8°F 42.8°F 100% 30.41 in 10.0 miles North 5.8 mph - N/A   Overcast
11:15 PM 42.8°F 42.8°F 100% 30.41 in 10.0 miles North 6.9 mph - N/A   Overcast
11:55 PM 42.8°F 42.8°F 100% 30.40 in 8.0 miles North 4.6 mph - N/A   Overcast
Moon Phase
Feb. 01 Feb. 03 Feb. 10 Feb. 17 Feb. 25
Sunrise:07:40 AM (PST) Moon Rise:No Moon Rise/
Sunset:05:10 PM (PST) Moon Set:09:43 AM (PST)2/1

Copyright © 2014 The Weather Underground, Inc.